Change the Weather History Date:

Friday, June 14, 2013

  Actual Average Record
Temperature  
Mean Temperature 56 °F -  
Max Temperature 60 °F 63 °F 75 °F (2001)
Min Temperature 53 °F 48 °F 44 °F (2000)
Degree Days  
Heating Degree Days 8    
Growing Degree Days 6 (Base 50)    
Moisture  
Dew Point 51 °F    
Average Humidity 84    
Maximum Humidity 100    
Minimum Humidity 59    
Precipitation  
Precipitation 0.00 in - - ()
Sea Level Pressure  
Sea Level Pressure 29.69 in    
Wind  
Wind Speed 3 mph (SE)    
Max Wind Speed 8 mph    
Max Gust Speed -    
Visibility 10 miles    
Events      
Averages and records for this station are not official NWS values.
T = Trace of Precipitation, MM = Missing Value Source: NWS Daily Summary

Daily Weather History Graph

Daily Weather History Graph

Search for Another Location

Airport or City:

Trip Planner

Search our weather history database for the weather conditions in past years. The results will help you decide how hot, cold, wet, or windy it might be!

Date:

Astronomy

Jun. 14, 2013 Rise Set
Actual Time 4:52 AM EDT 8:20 PM EDT
Civil Twilight 4:16 AM EDT 8:57 PM EDT
Nautical Twilight 3:28 AM EDT 9:45 PM EDT
Astronomical Twilight 2:28 AM EDT 10:45 PM EDT
Moon 10:34 AM EDT (6/14) 11:43 PM EDT (6/14)
Length of Visible Light 16h 40m
Length of Day
15h 28m
Waxing Crescent, 30% of the Moon is Illuminated
Jun 14
Waxing Crescent
Jun 16
First Quarter
Jun 23
Full
Jun 30
Last Quarter
Jul 8
New

Hourly Weather History & Observations

Time (EDT) Temp. Dew Point Humidity Pressure Visibility Wind Dir Wind Speed Gust Speed Precip Events Conditions
12:15 AM 53.6 °F 51.8 °F 94% 29.74 in 10.0 mi Calm Calm - N/A   Mostly Cloudy
12:35 AM 53.6 °F 51.8 °F 94% 29.74 in 10.0 mi Calm Calm - N/A   Partly Cloudy
12:55 AM 53.6 °F 51.8 °F 94% 29.73 in 10.0 mi Calm Calm - N/A   Clear
1:15 AM 53.6 °F 51.8 °F 94% 29.72 in 9.0 mi Calm Calm - N/A   Clear
1:35 AM 53.6 °F 51.8 °F 94% 29.71 in 10.0 mi Calm Calm - N/A   Clear
1:55 AM 53.6 °F 51.8 °F 94% 29.70 in 10.0 mi Calm Calm - N/A   Clear
2:15 AM 53.6 °F 51.8 °F 94% 29.69 in 10.0 mi Calm Calm - N/A   Clear
2:35 AM 53.6 °F 51.8 °F 94% 29.68 in 10.0 mi Calm Calm - N/A   Clear
2:55 AM 53.6 °F 51.8 °F 94% 29.68 in 10.0 mi Calm Calm - N/A   Clear
3:15 AM 53.6 °F 51.8 °F 94% 29.68 in 10.0 mi Calm Calm - N/A   Clear
3:35 AM 53.6 °F 51.8 °F 94% 29.68 in 10.0 mi Calm Calm - N/A   Clear
3:55 AM 53.6 °F 51.8 °F 94% 29.69 in 9.0 mi Calm Calm - N/A   Clear
4:15 AM 53.6 °F 51.8 °F 94% 29.69 in 6.0 mi NE 3.5 mph - N/A   Clear
4:35 AM 53.6 °F 51.8 °F 94% 29.69 in 5.0 mi NE 4.6 mph - N/A   Clear
4:55 AM 53.6 °F 53.6 °F 100% 29.69 in 8.0 mi NNE 4.6 mph - N/A   Clear
5:15 AM 53.6 °F 53.6 °F 100% 29.69 in 7.0 mi NE 4.6 mph - N/A   Clear
5:35 AM 53.6 °F 53.6 °F 100% 29.69 in 7.0 mi ENE 4.6 mph - N/A   Clear
5:55 AM 53.6 °F 53.6 °F 100% 29.68 in 6.0 mi NE 3.5 mph - N/A   Clear
6:15 AM 53.6 °F 51.8 °F 94% 29.68 in 10.0 mi North 4.6 mph - N/A   Clear
6:35 AM 55.4 °F 53.6 °F 94% 29.68 in 9.0 mi Calm Calm - N/A   Clear
6:55 AM 55.4 °F 53.6 °F 94% 29.68 in 10.0 mi North 3.5 mph - N/A   Clear
7:15 AM 55.4 °F 51.8 °F 88% 29.68 in 10.0 mi NE 3.5 mph - N/A   Clear
7:35 AM 55.4 °F 51.8 °F 88% 29.68 in 9.0 mi Calm Calm - N/A   Scattered Clouds
7:55 AM 55.4 °F 51.8 °F 88% 29.69 in 9.0 mi Calm Calm - N/A   Scattered Clouds
8:15 AM 57.2 °F 51.8 °F 82% 29.69 in 10.0 mi Calm Calm - N/A   Partly Cloudy
8:35 AM 57.2 °F 51.8 °F 82% 29.69 in 10.0 mi NE 3.5 mph - N/A   Partly Cloudy
8:55 AM 57.2 °F 51.8 °F 82% 29.68 in 8.0 mi NNE 3.5 mph - N/A   Clear
9:15 AM 60.8 °F 51.8 °F 72% 29.69 in 10.0 mi Calm Calm - N/A   Partly Cloudy
9:35 AM 60.8 °F 51.8 °F 72% 29.69 in 10.0 mi ESE 8.1 mph - N/A   Mostly Cloudy
9:55 AM 57.2 °F 53.6 °F 88% 29.69 in 10.0 mi ESE 8.1 mph - N/A   Mostly Cloudy
10:15 AM 57.2 °F 51.8 °F 82% 29.70 in 10.0 mi East 5.8 mph - N/A   Partly Cloudy
10:35 AM 57.2 °F 51.8 °F 82% 29.71 in 10.0 mi South 8.1 mph - N/A   Clear
10:55 AM 57.2 °F 51.8 °F 82% 29.71 in 10.0 mi South 4.6 mph - N/A   Clear
11:15 AM 57.2 °F 51.8 °F 82% 29.70 in 10.0 mi South 6.9 mph - N/A   Clear
11:35 AM 57.2 °F 51.8 °F 82% 29.68 in 10.0 mi SSE 5.8 mph - N/A   Clear
11:55 AM 60.8 °F 53.6 °F 77% 29.68 in 10.0 mi SE 5.8 mph - N/A   Clear
12:15 PM 60.8 °F 53.6 °F 77% 29.68 in 10.0 mi East 4.6 mph - N/A   Partly Cloudy
12:35 PM 60.8 °F 51.8 °F 72% 29.69 in 10.0 mi SE 6.9 mph - N/A   Partly Cloudy
12:55 PM 59.0 °F 51.8 °F 77% 29.69 in 10.0 mi SSE 6.9 mph - N/A   Clear
1:15 PM 59.0 °F 53.6 °F 82% 29.69 in 10.0 mi South 8.1 mph - N/A   Partly Cloudy
1:35 PM 59.0 °F 51.8 °F 77% 29.69 in 10.0 mi South 8.1 mph - N/A   Clear
1:55 PM 59.0 °F 51.8 °F 77% 29.68 in 10.0 mi South 5.8 mph - N/A   Clear
2:15 PM 59.0 °F 51.8 °F 77% 29.68 in 10.0 mi SSE 5.8 mph - N/A   Clear
2:35 PM 60.8 °F 51.8 °F 72% 29.68 in 10.0 mi SE 6.9 mph - N/A   Clear
2:55 PM 60.8 °F 50.0 °F 68% 29.68 in 10.0 mi South 6.9 mph - N/A   Clear
3:15 PM 60.8 °F 48.2 °F 63% 29.68 in 10.0 mi SSE 6.9 mph - N/A   Clear
3:35 PM 59.0 °F 48.2 °F 67% 29.68 in 10.0 mi SSE 6.9 mph - N/A   Clear
3:55 PM 59.0 °F 50.0 °F 72% 29.68 in 10.0 mi SSE 5.8 mph - N/A   Clear
4:15 PM 59.0 °F 51.8 °F 77% 29.68 in 10.0 mi South 6.9 mph - N/A   Clear
4:35 PM 60.8 °F 48.2 °F 63% 29.68 in 10.0 mi South 8.1 mph - N/A   Clear
4:55 PM 60.8 °F 46.4 °F 59% 29.68 in 10.0 mi SSE 6.9 mph - N/A   Clear
5:15 PM 60.8 °F 46.4 °F 59% 29.67 in 10.0 mi SSE 5.8 mph - N/A   Clear
5:35 PM 60.8 °F 46.4 °F 59% 29.67 in 10.0 mi South 5.8 mph - N/A   Clear
5:55 PM 60.8 °F 46.4 °F 59% 29.68 in 10.0 mi South 4.6 mph - N/A   Clear
6:15 PM 60.8 °F 48.2 °F 63% 29.68 in 10.0 mi South 5.8 mph - N/A   Clear
6:35 PM 60.8 °F 48.2 °F 63% 29.68 in 10.0 mi SSE 5.8 mph - N/A   Clear
6:55 PM 57.2 °F 50.0 °F 77% 29.69 in 10.0 mi SW 3.5 mph - N/A   Clear
7:15 PM 57.2 °F 51.8 °F 82% 29.72 in 10.0 mi NW 6.9 mph - N/A   Partly Cloudy
7:35 PM 57.2 °F 50.0 °F 77% 29.70 in 10.0 mi South 4.6 mph - N/A   Scattered Clouds
7:55 PM 57.2 °F 50.0 °F 77% 29.69 in 10.0 mi South 4.6 mph - N/A   Mostly Cloudy
8:15 PM 55.4 °F 51.8 °F 88% 29.69 in 10.0 mi South 5.8 mph - N/A   Overcast
8:35 PM 55.4 °F 51.8 °F 88% 29.71 in 10.0 mi South 4.6 mph - N/A   Overcast
8:55 PM 55.4 °F 51.8 °F 88% 29.71 in 10.0 mi SE 5.8 mph - N/A   Mostly Cloudy
9:15 PM 53.6 °F 51.8 °F 94% 29.71 in 10.0 mi SE 3.5 mph - N/A   Overcast
9:35 PM 53.6 °F 51.8 °F 94% 29.74 in 10.0 mi WNW 3.5 mph - N/A   Overcast
9:55 PM 53.6 °F 51.8 °F 94% 29.72 in 10.0 mi SSE 4.6 mph - N/A   Overcast
10:15 PM 53.6 °F 51.8 °F 94% 29.74 in 10.0 mi Calm Calm - N/A   Mostly Cloudy
10:35 PM 53.6 °F 51.8 °F 94% 29.71 in 10.0 mi South 4.6 mph - N/A   Mostly Cloudy
10:55 PM 53.6 °F 51.8 °F 94% 29.71 in 10.0 mi Calm Calm - N/A   Mostly Cloudy
11:35 PM 53.6 °F 51.8 °F 94% 29.73 in 10.0 mi West 3.5 mph - N/A   Overcast
11:55 PM 53.6 °F 51.8 °F 94% 29.73 in 10.0 mi Calm Calm - N/A   Mostly Cloudy